Regional Weather Roundup
Issued by NWS Wilmington, NC

Home | Current Version | Previous Version | Text Only | Print | Product List | Glossary On
Versions: 1 2 3 4 5 6 7 8 9 10 11 12 13 14 15 16 17 18 19 20 21 22 23 24 25 26 27 28 29 30 31 32 33 34 35 36 37 38 39 40 41 42 43 44 45 46 47 48 49 50
244
ASUS42 KILM 191114
RWRILM
RWRILM
REGIONAL HOURLY WEATHER ROUNDUP
NATIONAL WEATHER SERVICE WILMINGTON NC
600 AM EST TUE NOV 19 2019

NOTE: "FAIR" INDICATES FEW OR NO CLOUDS BELOW 12,000 FEET WITH NO
SIGNIFICANT WEATHER AND/OR OBSTRUCTIONS TO VISIBILITY.

...............WFO WILMINGTON COUNTY WARNING AREA...............

......COASTAL NC AND SC COUNTIES......

CITY           SKY/WX    TMP DP  RH WIND       PRES   REMARKS
WILMINGTON     CLOUDY    47  45  93 NW7       29.83R
N MYRTLE BEACH FAIR      46  45  96 CALM      29.83R
MYRTLE BEACH   MOCLDY    46  45  96 NE3       29.84R

......INLAND NC AND SC COUNTIES.......

CITY           SKY/WX    TMP DP  RH WIND       PRES   REMARKS
LUMBERTON      NOT AVBL
ELIZABETHTOWN  CLOUDY    45  44  99 CALM      29.84R FOG
WHITEVILLE     NOT AVBL
FLORENCE       CLOUDY    42  41  96 CALM      29.84R FOG
DARLINGTON     FOG       42  42 100 CALM      29.84S VSB 1/2
KINGSTREE      CLOUDY    43  41  93 CALM      29.84R
HARTSVILLE     NOT AVBL
BENNETTSVILLE  FOG       41  41 100 CALM      29.84R VSB 1/4
CONWAY         FAIR      41  41 100 CALM      29.84R
GEORGETOWN     FAIR      43  43 100 CALM      29.83S
MARION         FOG       41  41 100 CALM      29.84R VSB 1/4

....................REST OF NORTH CAROLINA......................

.........EASTERN NC.........

CITY           SKY/WX    TMP DP  RH WIND       PRES   REMARKS
CAPE HATTERAS  CLOUDY    49  48  97 VRB3      29.80S
JACKSONVILLE   CLOUDY    46  45  96 CALM      29.83S FOG
MOREHEAD CITY  CLOUDY    46  45  96 NW7       29.82R
KENANSVILLE    CLOUDY    46  46 100 CALM      29.84R FOG
NEW BERN       CLOUDY    45  44  97 W3        29.84R
ELIZABETH CITY CLOUDY    47  45  93 W5        29.82R

.........CENTRAL NC.........

CITY           SKY/WX    TMP DP  RH WIND       PRES   REMARKS
RALEIGH DURHAM DRZL/FOG  45  44  97 CALM      29.83R VSB 1
ROCKY MOUNT    CLOUDY    44  44 100 SW3       29.84R FOG
ROANOKE RAPIDS NOT AVBL
FAYETTEVILLE   CLOUDY    47  45  93 N5        29.82S
HOFFMAN        CLOUDY    45  45 100 W3        29.83R FOG

.........WESTERN NC.........

CITY           SKY/WX    TMP DP  RH WIND       PRES   REMARKS
CHARLOTTE      FOG       45  43  93 S3        29.83R VSB 1/4
GREENSBORO     CLOUDY    40  39  97 W3        29.82S FOG
HICKORY        NOT AVBL
BOONE          NOT AVBL
ASHEVILLE      NOT AVBL

.....................REST OF SOUTH CAROLINA.....................

.........EASTERN SC.........

CITY           SKY/WX    TMP DP  RH WIND       PRES   REMARKS
CHARLESTON     MOCLDY    46  45  96 N3        29.82R
BEAUFORT MCAS  FAIR      49  48  97 CALM      29.83R
HILTON HEAD    NOT AVBL

.........CENTRAL SC.........

CITY           SKY/WX    TMP DP  RH WIND       PRES   REMARKS
COLUMBIA       LGT RAIN  45  44  97 CALM      29.83R VSB 1/2
ORANGEBURG     FOG       44  43  96 CALM      29.83R VSB 1/2
SUMTER SHAW    CLOUDY    45  45  99 CALM      29.84R

.........WESTERN SC.........

CITY           SKY/WX    TMP DP  RH WIND       PRES   REMARKS
GREENVILLE     NOT AVBL
ROCK HILL      FOG       45  43  93 CALM      29.83R VSB 1
ANDERSON       CLOUDY    45  44  97 CALM      29.79F
CLEMSON        NOT AVBL
GREENWOOD      CLOUDY    44  44 100 CALM      29.81F FOG


...................COASTAL AND OFFSHORE REPORTS..................

................LOCAL PIERS AND NC RESERVE................


STATION/POSITION TIME  SKY/WX   TEMP    WIND        PRES    VSBY
                                AIR SEA DIR/SP/G
                 (UTC)          (F)     (DEG/KT/KT) (MB)    (MI)
JOHNY MRCER PIER 1030            46 58  330/  6/  9 1009.5R
NC RESRV MASNBRO NOT AVBL
OCEAN CREST PIER NOT AVBL
SPRINGMAID  PIER 1030            47                   N/A


................COASTAL AND OFFSHORE BUOYS................


STATION/POSITION TIME  SKY/WX   TEMP    WIND        PRES    VSBY
                                AIR SEA DIR/SP/G
                 (UTC)          (F)     (DEG/KT/KT) (MB)    (MI)
DIMNDSHOAL 41025 1050            52 79  340/ 10/ 14 1008.7R
WVE H/P(F/S)=  9/12 SWL H/P/D(F/S/D)=  8/ 60/12

CAPE LOOKOUT     1100            46     350/  4/  6 1010.4R
ONSLOW BAY 41036 NOT AVBL
ONSLOW BAY 41064 1008            54 74  350/  8/ 12 1009.0R
ONSLOW BAY 41159 1100               74                N/A
WVE H/P(F/S)=  4/12 SWL H/P/D(F/S/D)=  3/ 80/12

MASNBO INL 41110 1040               61                N/A
WVE H/P(F/S)=  2/12 SWL H/P/D(F/S/D)=  2/100/12

WILM HARBR 41108 1030               61                N/A
WVE H/P(F/S)=  2/13 SWL H/P/D(F/S/D)=  2/120/13

27SE WRITB 41037 1008            46     330/  8/ 14   N/A
FRYING PAN 41013 1100            54     350/ 10/ 12 1009.8
SUNST NRSH 41024 1008            48 59   10/  6/  8 1010.1F
CAPRS NRSH 41029 NOT AVBL
EDISTO     41004 1050               75  200/  2/  4 1009.1R
WVE H/P(F/S)=  3/11 SWL H/P/D(F/S/D)=  3/110/11



..........OFFSHORE BUOYS BEYOND 100 NM OFFSHORE...........
.....IN A TRIANGLE---HAT TO BERMUDA TO BAHAMAS TO HAT.....


STATION/POSITION TIME  SKY/WX   TEMP    WIND        PRES    VSBY
                                AIR SEA DIR/SP/G
                 (UTC)          (F)     (DEG/KT/KT) (MB)    (MI)
150E HAT   41001 NOT AVBL
W BERMUDA  41048 1050               77  190/ 14/ 17 1008.5R
WVE H/P(F/S)=  6/ 9 SWL H/P/D(F/S/D)=  5/ 20/ 9

ATLANTIC S 41049 1050               80  150/ 16/ 19 1015.6R
WVE H/P(F/S)=  9/10 SWL H/P/D(F/S/D)=  7/290/10

E BAHAMAS  41046 1050            81     140/  8/ 12 1013.2R
WVE H/P(F/S)=  8/10 SWL H/P/D(F/S/D)=  8/350/10

NE BAHAMAS 41047 1100            78     240/ 12/ 17 1011.4
120E CANVRL41010 1100            72     260/ 16/ 19 1011.2

END




USA.gov is the U.S. government's official web portal to all federal, state and local government web resources and services.